Location: Auckland
(36.8500°S, 174.7800°E)
Time: 07:35:44
(UTC+12:00)

ISS - Visible Passes

Search period start: 21 May 2018 00:00
Search period end: 31 May 2018 00:00
Orbit: 402 x 407 km, 51.6° (Epoch: 21 May)

Date Brightness Start Highest point End Pass type
(mag) Time Alt. Az. Time Alt. Az. Time Alt. Az.
25 May -0.5 06:25:26 10° NNE 06:27:25 15° NE 06:29:25 10° E visible
27 May -2.3 06:16:04 10° NNW 06:19:12 39° NE 06:22:20 10° ESE visible
28 May -1.1 05:24:39 10° N 05:27:05 19° NE 05:29:33 10° E visible
29 May -3.9 06:08:45 18° WNW 06:11:04 73° SW 06:14:25 10° SE visible
30 May -2.4 05:19:43 38° E 05:19:43 38° E 05:22:05 10° ESE visible
